Ft Lauderdale, FL

1:28 AM EDT on April 27, 2017 (GMT -0400)
Fort Lauderdale-Hollywood International

Weather History for KFLL - March, 2014

Change the Weather History Date:

Friday, March 7, 2014

  Actual Average Record
Temperature  
Mean Temperature 71 °F 72 °F  
Max Temperature 82 °F 79 °F 89 °F (1967)
Min Temperature 60 °F 65 °F 35 °F (1920)
Degree Days  
Heating Degree Days 0 1  
Month to date heating degree days 0 7  
Since 1 July heating degree days 80 109  
Cooling Degree Days 6 8  
Month to date cooling degree days 64 52  
Year to date cooling degree days 452 408  
Growing Degree Days 22 (Base 50)    
Moisture  
Dew Point 61 °F    
Average Humidity 66    
Maximum Humidity 97    
Minimum Humidity 34    
Precipitation  
Precipitation T in 0.11 in 1.85 in (1987)
Month to date precipitation 1.14 0.63  
Year to date precipitation 6.65 7.22  
Snow  
Snow 0.00 in - - ()
Month to date snowfall 0.0  
Since 1 July snowfall 0.0  
Snow Depth 0.00 in    
Sea Level Pressure  
Sea Level Pressure 29.88 in    
Wind  
Wind Speed 13 mph (West)    
Max Wind Speed 29 mph    
Max Gust Speed 36 mph    
Visibility 10 miles    
Events Rain    
T = Trace of Precipitation, MM = Missing Value Source: NWS Daily Summary

Daily Weather History Graph

Daily Weather History Graph

Search for Another Location

Airport or City:

Trip Planner

Search our weather history database for the weather conditions in past years. The results will help you decide how hot, cold, wet, or windy it might be!

Date:

Astronomy

Mar. 07, 2014 Rise Set
Actual Time 6:38 AM EST 6:25 PM EST
Civil Twilight 6:15 AM EST 6:48 PM EST
Nautical Twilight 5:48 AM EST 7:15 PM EST
Astronomical Twilight 5:21 AM EST 7:41 PM EST
Moon 11:04 AM EST (3/7) No Moon Set
Length of Visible Light 12h 33m
Length of Day
11h 47m
Waxing Crescent, 42% of the Moon is Illuminated
Mar 7
Waxing Crescent
Mar 8
First Quarter
Mar 16
Full
Mar 23
Last Quarter
Mar 30
New

Hourly Weather History & Observations

Time (EST) Temp. Heat Index Dew Point Humidity Pressure Visibility Wind Dir Wind Speed Gust Speed Precip Events Conditions
12:53 AM 71.1 °F - 66.9 °F 87% 29.83 in 10.0 mi WSW 10.4 mph - N/A   Scattered Clouds
1:53 AM 70.0 °F - 68.0 °F 93% 29.82 in 10.0 mi SW 4.6 mph - N/A   Scattered Clouds
2:25 AM 69.8 °F - 68.0 °F 94% 29.81 in 10.0 mi SSW 3.5 mph - N/A   Mostly Cloudy
2:53 AM 71.1 °F - 69.1 °F 93% 29.80 in 10.0 mi WSW 4.6 mph - N/A   Mostly Cloudy
3:28 AM 71.6 °F - 69.8 °F 94% 29.79 in 10.0 mi Calm Calm - N/A   Mostly Cloudy
3:53 AM 71.1 °F - 69.1 °F 93% 29.79 in 10.0 mi WSW 11.5 mph 17.3 mph 0.00 in Rain Light Rain
4:53 AM 72.0 °F - 70.0 °F 93% 29.81 in 10.0 mi WSW 9.2 mph - 0.00 in   Mostly Cloudy
5:53 AM 71.1 °F - 70.0 °F 96% 29.83 in 10.0 mi WSW 9.2 mph - N/A   Mostly Cloudy
6:53 AM 71.1 °F - 69.1 °F 93% 29.85 in 10.0 mi West 9.2 mph - N/A   Scattered Clouds
7:07 AM 71.6 °F - 68.0 °F 88% 29.85 in 10.0 mi West 9.2 mph - N/A   Mostly Cloudy
7:53 AM 72.0 °F - 68.0 °F 87% 29.87 in 10.0 mi West 10.4 mph - N/A   Scattered Clouds
8:53 AM 75.0 °F - 66.0 °F 73% 29.89 in 10.0 mi West 11.5 mph 23.0 mph N/A   Mostly Cloudy
9:53 AM 75.9 °F - 62.1 °F 62% 29.89 in 10.0 mi West 18.4 mph 28.8 mph N/A   Mostly Cloudy
10:53 AM 78.1 °F - 61.0 °F 56% 29.89 in 10.0 mi West 16.1 mph 25.3 mph N/A   Mostly Cloudy
11:53 AM 78.1 °F - 60.1 °F 54% 29.88 in 10.0 mi West 19.6 mph - N/A   Mostly Cloudy
12:53 PM 79.0 °F - 57.0 °F 47% 29.86 in 10.0 mi West 21.9 mph 28.8 mph N/A   Mostly Cloudy
1:53 PM 82.0 °F - 52.0 °F 35% 29.84 in 10.0 mi West 25.3 mph 35.7 mph N/A   Scattered Clouds
2:53 PM 80.1 °F 80.0 °F 54.0 °F 40% 29.83 in 10.0 mi WNW 18.4 mph 31.1 mph N/A   Scattered Clouds
3:53 PM 80.1 °F 80.0 °F 54.0 °F 40% 29.85 in 10.0 mi West 21.9 mph 28.8 mph N/A   Scattered Clouds
4:53 PM 77.0 °F - 55.0 °F 47% 29.86 in 10.0 mi NW 15.0 mph - N/A   Scattered Clouds
5:53 PM 75.0 °F - 55.0 °F 50% 29.88 in 10.0 mi West 15.0 mph 21.9 mph N/A   Partly Cloudy
6:53 PM 71.1 °F - 55.0 °F 57% 29.91 in 10.0 mi WNW 12.7 mph - N/A   Partly Cloudy
7:53 PM 68.0 °F - 54.0 °F 61% 29.95 in 10.0 mi WNW 12.7 mph 21.9 mph N/A   Partly Cloudy
8:53 PM 66.0 °F - 54.0 °F 65% 29.99 in 10.0 mi WNW 11.5 mph - N/A   Partly Cloudy
9:53 PM 64.9 °F - 54.0 °F 68% 30.01 in 10.0 mi WNW 8.1 mph 18.4 mph N/A   Partly Cloudy
10:53 PM 62.1 °F - 53.1 °F 72% 30.03 in 10.0 mi NW 11.5 mph - N/A   Partly Cloudy
11:53 PM 61.0 °F - 52.0 °F 72% 30.03 in 10.0 mi NW 9.2 mph - N/A   Partly Cloudy